Flag for U.S.A. Weather past 2 weeks in El Paso, Texas, U.S.A.

Now
30 °F

Passing clouds.


Feels Like: 22 °F
Forecast: 36 / 71 °F
Wind: 8 mph from Northeast

Location: El Paso International Airport

Current Time: Feb 27, 2015 at 11:32:21 PM

Latest Report: Feb 27, 2015 at 10:51 PM


Visibility: 10 mi

Pressure: 29.96 "Hg

Humidity: 69%

Dew point: 21 °F

Location of El PasoLocation

Historic Weather in El Paso — Graph

°F

El Paso temperature yesterday

Maximum temperature yesterday: 55 °F (at 11:51 AM)
Minimum temperature yesterday: 33 °F (at 11:51 PM)
Average temperature yesterday: 45 °F

Past Weeks' High & Low Weather Summary

 TemperatureHumidityPressure
High76 °F (Feb 19, 2:51 PM)83% (Feb 15, 5:51 AM)30.30 "Hg (Feb 15, 5:51 AM)
Low29 °F (Feb 24, 2:51 AM)10% (Feb 18, 3:51 PM)29.66 "Hg (Feb 21, 3:51 PM)
Average52 °F43%29.96 "Hg
* Reported Feb 12 9:51 PM — Feb 27 9:51 PM, El Paso, Weather by CustomWeather, © 2015

Note: Actual official high and low records may vary slightly from our data, if they occured in-between our weather recording intervals... More about our weather records

Advertising

El Paso weather history for previous 24 hours

 ConditionsComfort  
Time TempWeatherWind HumidityBarometerVisibility
9:51 PM
Fri, Feb 27
31 °FPassing clouds.7 mph67%29.95 "Hg10 mi
8:51 PM32 °FPassing clouds.12 mph64%29.94 "Hg10 mi
7:51 PM34 °FPassing clouds.12 mph59%29.91 "Hg10 mi
6:51 PM38 °FPassing clouds.8 mph53%29.88 "Hg10 mi
5:51 PM42 °FPassing clouds.8 mph47%29.85 "Hg10 mi
4:51 PM44 °FPassing clouds.10 mph41%29.85 "Hg10 mi
3:51 PM46 °FScattered clouds.9 mph40%29.85 "Hg10 mi
2:51 PM46 °FPassing clouds.13 mph40%29.87 "Hg10 mi
1:51 PM44 °FPassing clouds.12 mph45%29.90 "Hg10 mi
12:51 PM41 °FScattered clouds.8 mph51%29.96 "Hg10 mi
11:51 AM38 °FPartly sunny.13 mph58%30.01 "Hg10 mi
10:51 AM35 °FOvercast.9 mph64%30.04 "Hg10 mi
9:51 AM33 °FOvercast.9 mph66%30.05 "Hg10 mi
8:51 AM32 °FOvercast.12 mph69%30.05 "Hg10 mi
7:51 AM31 °FOvercast.7 mph73%30.03 "Hg10 mi
6:51 AM31 °FOvercast.8 mph69%30.01 "Hg10 mi
5:51 AM31 °FOvercast.7 mph69%29.98 "Hg10 mi
4:51 AM31 °FOvercast.9 mph69%29.96 "Hg10 mi
3:51 AM31 °FMostly cloudy.10 mph69%29.94 "Hg10 mi
2:51 AM33 °FOvercast.7 mph66%29.94 "Hg10 mi
1:51 AM33 °FOvercast.12 mph66%29.96 "Hg10 mi
12:51 AM33 °FMostly cloudy.9 mph63%29.96 "Hg10 mi
11:51 PM
Thu, Feb 26
33 °FPassing clouds.12 mph66%29.96 "Hg10 mi
Weather by CustomWeather, © 2015

See weather overviewHow to use our weather pages